Location: Cantaing
(50.1487°N, 3.1675°E)
Time: 15:27:33
(UTC+00:00)

Cosmos 1833 Rocket - Pass Details

Date: 14 January 2026
Orbit: 832 x 838 km, 71.0° (Epoch: 18 February)

Event Time Altitude Azimuth Distance (km) Brightness Sun altitude
Exits shadow 05:24:51 43° 268° (W) 1,164 2.9 -21.1°
Maximum altitude 05:25:26 44° 251° (WSW) 1,138 2.9 -21.0°
Drops below altitude 10° 05:30:43 10° 180° (S) 2,439 5.2 -20.2°
Sets 05:33:14 0° 174° (S) 3,368 6.0 -19.8°
